Location: Harbor Side
(32.6101°N, 117.0814°W)
Time: 07:55:51
(UTC+00:00)

IUS-18 SRM-1 - Pass Details

Date: 21 April 2021
Orbit: 289 x 20551 km, 27.9° (Epoch: 13 May)

Event Time Altitude Azimuth Distance (km) Brightness Sun altitude
Exits shadow 12:07:23 21° 238° (WSW) 1,357 3.7 -13.6°
Maximum altitude 12:09:46 54° 166° (SSE) 1,075 3.7 -13.1°
Drops below altitude 10° 12:22:28 10° 93° (E) 6,277 8.8 -10.6°
Sets 12:33:36 0° 92° (E) 10,332 10.2 -8.4°
